Location: Usti nad Labem
(50.6670°N, 14.0330°E)
Time: 10:09:54
(UTC+01:00)

ISS - Visible Passes

Search period start: 28 November 2020 00:00
Search period end: 08 December 2020 00:00
Orbit: 418 x 420 km, 51.6° (Epoch: 28 November)

Date Brightness Start Highest point End Pass type
(mag) Time Alt. Az. Time Alt. Az. Time Alt. Az.
28 Nov -3.4 16:36:55 10° WSW 16:40:13 59° SSE 16:43:33 10° ENE visible
28 Nov -3.7 18:13:40 10° W 18:16:57 72° NNW 18:16:57 72° NNW visible
29 Nov -3.8 17:26:07 10° W 17:29:29 78° N 17:31:17 25° ENE visible
29 Nov -1.1 19:03:01 10° WNW 19:04:15 21° WNW 19:04:15 21° WNW visible
30 Nov -3.7 16:38:34 10° WSW 16:41:56 88° N 16:45:19 10° ENE visible
30 Nov -3.7 18:15:27 10° W 18:18:36 72° NW 18:18:36 72° NW visible
01 Dec -3.8 17:27:54 10° W 17:31:16 73° N 17:32:59 26° E visible
01 Dec -1.1 19:04:45 10° WNW 19:05:57 20° W 19:05:57 20° W visible
02 Dec -3.7 16:40:18 10° W 16:43:40 73° N 16:47:03 10° E visible
02 Dec -3.6 18:17:10 10° WNW 18:20:22 73° SW 18:20:22 73° SW visible
03 Dec -3.8 17:29:36 10° WNW 17:32:59 88° NNE 17:34:51 24° ESE visible
03 Dec -1.0 19:06:33 10° W 19:07:49 19° W 19:07:49 19° W visible
04 Dec -3.8 16:42:00 10° W 16:45:23 78° N 16:48:45 10° E visible
04 Dec -2.9 18:18:53 10° W 18:22:06 43° SSW 18:22:24 41° S visible
05 Dec -3.3 17:31:15 10° WNW 17:34:34 59° SSW 17:37:06 16° SE visible
05 Dec -0.7 19:08:50 10° WSW 19:10:05 14° WSW 19:10:05 14° WSW visible
06 Dec -3.6 16:43:38 10° WNW 16:47:00 76° SSW 16:50:22 10° ESE visible
06 Dec -1.4 18:20:48 10° W 18:23:27 22° SW 18:24:58 16° S visible
07 Dec -1.9 17:32:58 10° W 17:35:59 31° SSW 17:39:00 10° SSE visible
